Погода Облучье

Погода Облучье : погода сейчас, прогноз погоды и архив. Всё, что Вы хотите узнать о погоде Облучье!

Хотите узнать прогноз погоды Облучье? Тогда Вам сюда: Погода Облучье

Поиск расширенной информации на нашем сайте:

Другие новости

Новости СМИ2

Главная страница сайта

Новости сайта

03.07.2017

Напоминаем, что на нашем специализированном сайте Метеоцентр.Азия вы можете получить высокодетализированные автоматические прогнозы погоды по пунктам России, СНГ и мира в авиационном формате (включающие направление и скорость ветра, видимость, явления погоды, количество и форму облачности, нижнюю и верхнюю границу облачности).


Погода Облучье - сегодня

Время (UTC), дата Ветер
(°,м/с) 
Видим.   Явления Облачность Т
(°С)
Тd
(°С)
f(%) Тe
(°С)
Pmin
(гПа)
dP
(гПа)
Po
(мм)
O2
(г/м3)
Тmin Tmax R s Состояние
почвы
15 21.06.18 010 (С) 20000 м  {ливн. осадки}  ясно 
+11 +10.6 97 +15  998.8  0.3  726  279           
18 21.06.18 010 (С) 20000 м  {ливн. осадки}  ясно 
+8.8 +8.3 97 +9  999.1  0.1  726  282           
00 22.06.18 тихо ()   20000 м    10/0 верхняя 
[Cc]
+20 +13 64 +26  996.6  -1.5  725  270           
03 22.06.18 170 (Ю) 20000 м    8/1 1000 м средняя, верхняя 
[Cu hum|Ac trans|Ci fib]
+23.2 +12.6 51 +29  995  -1.2  724  266           
06 22.06.18 220 (ЮЗ) 20000 м    10/8 600 м кучево-дожд., верхняя 
[Cb cap|Cc]
+25.2 +15.1 54 +35  992  -2.7  722  263           
09 22.06.18 320 (СЗ) 1{11}  20000 м  гроза без осадков{ливн. осадки}  10/10 600 м кучево-дожд. 
[Cb cap]
+16.4 +14.2 87 +26  993.8  0.9  723  272    +25.6     
15 22.06.18 350 (С) 20000 м    8/0 средняя, верхняя 
[Ac cast|Ci fib]
+10.6 +10.2 97 +13  996.1  0.7  724  279           
18 22.06.18 360 (С) 10 км  слаб. ливневой дождь  10/10 600 м кучево-дожд. 
[Cb cap]
+10 +9.7 98 +12  996.1  0.1  724  279           
21 22.06.18 тихо ()   20000 м  {ливн. осадки}  10/10 600 м 
[St]
+13.1 +12.5 96 +19  997.2  0.1  725  276  +9.9    0.6    влажная 
00 23.06.18 310 (СЗ) 20000 м  {ливн. осадки}  10/9 600 м средняя 
[St|As op]
+14.6 +12.6 88 +21  998.8  1.6  726  275           
03 23.06.18 330 (СЗ) 20000 м    9/9 600 м кучево-дожд. 
[Cb cap]
+17.6 +12.5 72 +23  999  0.5  726  273           
06 23.06.18 340 (С) 20000 м    10/8 600 м кучево-дожд., верхняя 
[Cb cap|Ci fib]
+17.7 +12.2 70 +24  1000.1  1.1  727  273           
12 23.06.18 010 (С) 20000 м  {ливн. осадки}  8/5 1000 м верхняя 
[Sc|Ci fib]
+12.5 +11.8 95 +18  1002.8  1.5  729  278           
15 23.06.18 330 (СЗ) 20000 м    8/3 600 м кучево-дожд., верхняя 
[Cb cap|Ci fib]
+10.1 +9.7 97 +12  1003.7  0.5  729  282           
18 23.06.18 020 (С) 20000 м    3/0 верхняя 
[Ci fib]
+7.8 +7.5 98 +9  1004.2  0.3  729  284           
00 24.06.18 020 (С) 20000 м    4/1 1000 м средняя, верхняя 
[Sc|Ac lent|Ci fib]
+16.4 +11.5 73 +22  1005.1  0.9  731  276           
03 24.06.18 010 (С) 20000 м    10/9 1000 м верхняя 
[Sc diur, vesp|Ci fib]
+21.2 +9.6 47 +22  1004.7  0.1  731  272           
06 24.06.18 130 (ЮВ) 20000 м    10/10 600 м кучево-дожд. 
[Cb cap]
+19.7 +13.2 66 +27  1005.1  0.3  731  272           
12 24.06.18 150 (ЮВ) 20000 м    10/3 1000 м средняя 
[Sc|Ac und]
+16.7 +12.3 75 +23  1008  1.5  733  276           
15 24.06.18 140 (ЮВ) 20000 м    10/10 600 м кучево-дожд. 
[Cb cap]
+13.6 +11.2 85 +18  1010.4  1.9  734  280           
18 24.06.18 150 (ЮВ) 20000 м    10/10 600 м кучево-дожд. 
[Cb cap]
+12.7 +10.5 86 +16  1011.5  1.9  735  281           
00 25.06.18 130 (ЮВ) 20000 м    8/0 средняя, верхняя 
[Ac trans|Ci fib]
+15.8 +9.2 65 +17  1011.1  -0.7  735  278           
03 25.06.18 160 (Ю) 20000 м    10/0 средняя, верхняя 
[Ac trans|Ci fib]
+19.4 +9.7 53 +21  1009.8  -0.8  734  275           
06 25.06.18 150 (ЮВ) 20000 м    10/4 600 м кучево-дожд., средняя, верхняя 
[Cb cap|Ac trans|Cs]
+18.3 +11 62 +22  1009  -0.9  734  275           
12 25.06.18 140 (ЮВ) 20000 м  {ливн. осадки}  10/0 средняя 
[As op]
+14.7 +11.2 80 +19  1008.6  -0.3  733  278           
Время (UTC), дата Ветер
(°,м/с) 
Видим.   Явления Облачность Т
(°С)
Тd
(°С)
f(%) Тe
(°С)
Pmin
(гПа)
dP
(гПа)
Po
(мм)
O2
(г/м3)
Тmin Tmax R s Состояние
почвы

Для получения пояснительной информации подведите курсор к названию столбца.

ПОГОДА Облучье - архив

Всё, что Вы хотите узнать о погоде Облучье - удобно и подробно!

Выберите нужную дату (начиная с 1 января 2015* года) и нажмите кнопку "Найти".
Будут отображены архивные сводки погоды по пункту Облучье, начиная с указанной даты.


Отображать данные в формате CSV (для использования в таблицах Excel)


Внимание! Наш архив погоды предназначен исключительно для личного некоммерческого использования в познавательных целях. Если Вам необходимы официальные справки о состоянии погоды (для производственных, юридических, коммерческих и т.п. целей), обращайтесь в органы Росгидромета.

*Примечание: данная дата относится к архиву по метеостанциям СССР (Россия, СНГ, Балтия).
Архив по метеостанциям Зарубежной Европы и Азии (кроме Китая) хранится 10 дней, по другим регионам земного шара (Китай, Африка, Америка, Австралия, Океания) - 1 день.

Облучье - район местоположения метеостанции


Название, широта, долгота, высота метеостанции:
Облучье 49°ш. 131.1°д. 257 м над ур. моря [Российская Федерация]

Дополнительная информация

В oтличие oт бoльшинства пoгoдных сайтoв мы публикуем пoдрoбную метеoинфoрмацию в детальнoм прoфессиoнальнoм фoрмате.

Характеристики температуры и влажнoсти вoздуха измеряются на высoте 2 м в тени вдали oт зданий и деревьев.
Скoрoсть ветра измеряется на высoте 10 м (на урoвне рoста челoвека скoрoсть ветра ниже в 1.5-2 раза). Если метеoстанция нахoдится в гoрoде или в лесу, тo скoрoсть ветра занижена на 2-4 м/с пo сравнению с oткрытым местoм. Скoрoсть ветра над акватoриями крупных рек и oзёр, а также на вершинах хoлмoв на 2-5 м/с выше, чем в oбычных услoвиях.
Атмoсфернoе давление в разных тoчках местнoсти мoжет значительнo oтличаться oт давления на метеoстанции, в зависимoсти oт услoвий рельефа (при пoдъёме на 10 м давление пoнижается примернo на 1 мм рт.ст.).